User: anonymous   Login
Location: Unspecified
(0.0000°N, 0.0000°E)
Time: 07:25:57
(UTC+00:00)
Language:

USA 238 DEB - Orbit

View from above orbital plane
View from above orbital plane
View from above satellite
View from above satellite

Ground track
Ground track

The orbit data is extracted from the following two-line orbital elements,

1 38773U 12048P   17287.96599215 0.00000000  00000-0  00000-0 0    07
2 38773  63.4356 356.3622 0039000   8.6145 351.3855 13.40739490    00
Epoch (UTC): 14 October 2017 23:11:01
Eccentricity: 0.0039000
inclination: 63.4356°
perigee height: 1077 km
apogee height: 1136 km
right ascension of ascending node: 356.3622°
argument of perigee: 8.6145°
revolutions per day: 13.40739490
mean anomaly at epoch: 351.3855°
orbit number at epoch: 0

The dashed part of the orbit path shows where the satellite is in the earth's shadow,  

DLR